This demonstration page uses our WeatherBlox Daily Observations layout. Learn more.

Left ArrowRight Arrow

39.12711, -84.51439

Hourly Observations for July 8, 2021

Temp ( °F °C ) Dew Point ( °F °C ) Humidity (%) Winds ( mph kmh ) Pressure ( in mb ) Visibility ( mi km ) Precip ( " mm )
12:53 am 00:53 Clear 73 22.8 67 19.4 81 81 S 8 13 29.92 1013 10 16 N/A
1:53 am 01:53 Partly Cloudy 73 22.8 68 20 84 84 S 8 13 29.91 1013 10 16 N/A
2:42 am 02:42 Mostly Cloudy 72 22.2 68 20 87 87 S 5 7 29.90 1013 10 16 N/A
2:53 am 02:53 Cloudy 72 22.2 68 20 87 87 S 6 9 29.91 1013 10 16 N/A
3:31 am 03:31 Partly Cloudy 70 21.1 67 19.4 90 90 S 5 7 29.90 1012 10 16 N/A
3:53 am 03:53 Mostly Clear 70 21.1 67 19.4 90 90 S 3 6 29.89 1012 10 16 N/A
4:53 am 04:53 Mostly Cloudy 69 20.6 67 19.4 93 93 N N/A 29.89 1012 10 16 N/A
5:11 am 05:11 Mostly Cloudy 70 21.1 67 19.4 90 90 SSW 3 6 29.90 1012 10 16 N/A
5:19 am 05:19 Mostly Cloudy 69 20.6 67 19.4 93 93 SSW 5 7 29.90 1012 10 16 N/A
5:53 am 05:53 Cloudy 70 21.1 68 20 93 93 SSW 5 7 29.89 1012 10 16 N/A
6:53 am 06:53 Cloudy 72 22.2 69 20.6 91 91 SSW 5 7 29.90 1013 10 16 N/A
7:03 am 07:03 Cloudy 72 22.2 69 20.6 91 91 SSW 6 9 29.89 1012 10 16 N/A
7:53 am 07:53 Cloudy 73 22.8 69 20.6 87 87 S 6 9 29.91 1013 10 16 N/A
8:53 am 08:53 Cloudy 73 22.8 69 20.6 87 87 SW 6 9 29.92 1013 10 16 0.00 0.00
9:53 am 09:53 Cloudy 74 23.3 70 21.1 88 88 S 6 9 29.92 1013 10 16 N/A
10:48 am 10:48 Cloudy 75 24 70 21 83 83 S 6 9 29.91 1013 10 16 N/A
10:53 am 10:53 Cloudy 76 24.4 70 21.1 82 82 S 6 9 29.92 1013 10 16 N/A
11:53 am 11:53 Cloudy 78 25.6 71 21.7 79 79 SSE 7 11 29.91 1013 10 16 N/A
12:53 pm 12:53 Cloudy 79 26.1 72 22.2 79 79 SSW 12 19 29.91 1013 9 14 N/A
1:53 pm 13:53 Cloudy 79 26.1 71 21.7 77 77 S 8 13 29.90 1012 8 13 N/A
2:21 pm 14:21 Partly Cloudy 80 26.7 72 22.2 76 76 SW 6 9 29.89 1012 7 11 N/A
2:53 pm 14:53 Sunny 80 26.7 71 21.7 74 74 SW 8 13 29.89 1012 7 11 N/A
3:53 pm 15:53 Partly Cloudy 81 27.2 72 22.2 74 74 WSW 5 7 29.88 1012 7 11 N/A
4:53 pm 16:53 Mostly Sunny 83 28.3 71 21.7 67 67 N N/A 29.85 1011 8 13 N/A
5:53 pm 17:53 Partly Cloudy 82 27.8 71 21.7 69 69 N N/A 29.86 1011 8 13 N/A
6:53 pm 18:53 Partly Cloudy 81 27.2 72 22.2 74 74 SSW 10 17 29.85 1011 10 16 N/A
7:53 pm 19:53 Mostly Sunny 78 25.6 69 20.6 74 74 SW 7 11 29.86 1011 10 16 N/A
8:53 pm 20:53 Mostly Cloudy 76 24.4 68 20 77 77 SSW 5 7 29.86 1011 10 16 N/A
9:53 pm 21:53 Mostly Clear 74 23.3 66 18.9 76 76 WSW 5 7 29.90 1012 10 16 N/A
10:53 pm 22:53 Clear 73 22.8 67 19.4 81 81 W 9 15 29.90 1012 10 16 N/A
11:53 pm 23:53 Clear 71 21.7 67 19.4 87 87 SW 6 9 29.90 1013 10 16 N/A

Powered by AerisWeather